QPF
0.09 0.09 0.09 0.08 0.07 0.06 0.06 0.05 0.03 0.02 0.01 0.01 0.01 0.01 0.01 0.02 0.01 0.02 0.02 0.01 0.02 0.02 0.02 0.02 0.03 0.03 0.04 0.04 0.04 0.04 0.04 0.05 0.04 0.04 0.04 0.04 0.05 0.06
0.07 0.08 0.08 0.08 0.07 0.07 0.07 0.07 0.05 0.04 0.03 0.02 0.02 0.01 0.01 0.01 0.01 0.01 0.01 0.00 0.01 0.01 0.02 0.02 0.01 0.02 0.03 0.04 0.04 0.04 0.03 0.03 0.03 0.03 0.04 0.05 0.05 0.05
0.05 0.06 0.08 0.09 0.08 0.07 0.08 0.09 0.09 0.07 0.05 0.04 0.04 0.03 0.02 0.01 0.01 0.01 0.01 0.01 0.00 0.00 0.01 0.02 0.02 0.02 0.02 0.03 0.03 0.03 0.03 0.02 0.03 0.04 0.06 0.08 0.08 0.06
0.04 0.04 0.05 0.07 0.08 0.08 0.08 0.09 0.10 0.11 0.09 0.08 0.06 0.04 0.02 0.02 0.01 0.01 0.01 0.01 0.00 0.00 0.00 0.01 0.02 0.03 0.01 0.01 0.02 0.03 0.03 0.03 0.03 0.04 0.05 0.07 0.10 0.10
0.02 0.04 0.05 0.05 0.07 0.08 0.06 0.06 0.07 0.09 0.11 0.13 0.12 0.08 0.04 0.02 0.02 0.01 0.01 0.01 0.00 0.01 0.01 0.01 0.01 0.03 0.04 0.03 0.02 0.02 0.03 0.03 0.03 0.04 0.04 0.06 0.07 0.08
0.01 0.02 0.03 0.05 0.06 0.07 0.08 0.07 0.06 0.08 0.09 0.11 0.13 0.12 0.08 0.04 0.02 0.01 0.01 0.01 0.01 0.01 0.01 0.01 0.01 0.02 0.03 0.04 0.04 0.03 0.03 0.04 0.04 0.04 0.05 0.05 0.06 0.06
0.02 0.02 0.02 0.03 0.05 0.07 0.08 0.08 0.08 0.07 0.07 0.08 0.09 0.10 0.09 0.06 0.03 0.02 0.01 0.01 0.01 0.01 0.01 0.00 0.00 0.01 0.01 0.02 0.03 0.05 0.05 0.06 0.06 0.05 0.06 0.06 0.06 0.06
0.02 0.02 0.02 0.02 0.03 0.04 0.07 0.08 0.08 0.08 0.08 0.08 0.08 0.08 0.06 0.04 0.03 0.03 0.02 0.02 0.02 0.01 0.01 0.01 0.01 0.01 0.01 0.01 0.02 0.02 0.03 0.04 0.05 0.06 0.06 0.06 0.06 0.06
0.01 0.02 0.02 0.02 0.02 0.03 0.05 0.09 0.10 0.09 0.07 0.08 0.09 0.09 0.08 0.05 0.03 0.03 0.03 0.02 0.01 0.01 0.01 0.01 0.01 0.01 0.01 0.01 0.02 0.02 0.02 0.02 0.02 0.02 0.02 0.02 0.02 0.03
0.01 0.01 0.01 0.01 0.01 0.01 0.03 0.06 0.08 0.09 0.08 0.06 0.08 0.10 0.12 0.11 0.07 0.04 0.04 0.03 0.02 0.02 0.01 0.01 0.01 0.01 0.01 0.01 0.01 0.01 0.02 0.02 0.01 0.01 0.01 0.01 0.01 0.01
0.01 0.01 0.01 0.01 0.01 0.01 0.02 0.04 0.06 0.07 0.08 0.07 0.08 0.11 0.14 0.12 0.10 0.07 0.05 0.03 0.03 0.04 0.03 0.02 0.02 0.01 0.01 0.01 0.01 0.01 0.01 0.01 0.01 0.01 0.01 0.01 0.02 0.02
0.02 0.02 0.01 0.01 0.01 0.01 0.01 0.02 0.04 0.06 0.06 0.06 0.06 0.07 0.08 0.09 0.08 0.06 0.04 0.03 0.02 0.02 0.03 0.03 0.03 0.02 0.02 0.01 0.00 0.00 0.00 0.00 0.00 0.00 0.01 0.02 0.03 0.02
0.02 0.02 0.01 0.00 0.00 0.01 0.01 0.02 0.04 0.05 0.08 0.09 0.08 0.07 0.07 0.07 0.07 0.07 0.05 0.04 0.03 0.02 0.01 0.01 0.02 0.02 0.02 0.02 0.01 0.00 0.00 0.00 0.00 0.00 0.00 0.01 0.03 0.03
0.02 0.02 0.02 0.01 0.00 0.01 0.02 0.03 0.05 0.05 0.07 0.10 0.11 0.09 0.07 0.06 0.06 0.06 0.06 0.07 0.06 0.04 0.02 0.01 0.01 0.01 0.01 0.01 0.01 0.01 0.00 0.00 0.00 0.00 0.00 0.01 0.01 0.03
0.02 0.02 0.01 0.00 0.01 0.01 0.02 0.04 0.07 0.06 0.07 0.09 0.10 0.08 0.06 0.05 0.06 0.07 0.07 0.09 0.09 0.06 0.04 0.03 0.02 0.01 0.02 0.02 0.02 0.01 0.01 0.01 0.00 0.00 0.00 0.00 0.00 0.01
0.01 0.01 0.00 0.01 0.01 0.02 0.03 0.04 0.08 0.08 0.08 0.08 0.09 0.10 0.09 0.08 0.07 0.06 0.07 0.07 0.08 0.06 0.05 0.04 0.04 0.03 0.02 0.02 0.02 0.02 0.01 0.01 0.01 0.01 0.00 0.00 0.00 0.00
0.04 0.04 0.03 0.02 0.02 0.03 0.04 0.06 0.10 0.12 0.10 0.11 0.12 0.11 0.11 0.10 0.09 0.07 0.07 0.06 0.05 0.05 0.05 0.05 0.04 0.03 0.03 0.02 0.02 0.01 0.00 0.00 0.00 0.00 0.01 0.01 0.00 0.00
0.02 0.04 0.05 0.05 0.05 0.05 0.08 0.10 0.12 0.14 0.13 0.13 0.14 0.12 0.11 0.10 0.10 0.10 0.08 0.06 0.06 0.05 0.03 0.03 0.03 0.03 0.03 0.02 0.01 0.01 0.00 0.00 0.00 0.01 0.01 0.00 0.00 0.00
0.01 0.04 0.07 0.07 0.07 0.09 0.12 0.14 0.15 0.16 0.17 0.17 0.16 0.13 0.12 0.10 0.09 0.10 0.09 0.07 0.06 0.05 0.04 0.02 0.02 0.02 0.02 0.02 0.01 0.00 0.00 0.00 0.00 0.00 0.00 0.00 0.00 0.00
0.03 0.06 0.10 0.11 0.12 0.13 0.16 0.18 0.18 0.20 0.22 0.21 0.18 0.15 0.12 0.11 0.10 0.09 0.09 0.07 0.06 0.05 0.04 0.03 0.02 0.01 0.01 0.01 0.01 0.00 0.00 0.00 0.00 0.00 0.00 0.00 0.00 0.00
0.07 0.09 0.11 0.13 0.15 0.16 0.17 0.19 0.19 0.22 0.24 0.24 0.20 0.16 0.13 0.11 0.10 0.09 0.08 0.08 0.06 0.04 0.04 0.03 0.02 0.01 0.01 0.00 0.00 0.00 0.00 0.00 0.00 0.00 0.00 0.00 0.00 0.00
0.10 0.10 0.11 0.13 0.16 0.17 0.17 0.20 0.22 0.24 0.25 0.24 0.21 0.17 0.15 0.12 0.10 0.09 0.08 0.07 0.06 0.04 0.03 0.02 0.02 0.01 0.01 0.01 0.00 0.00 0.00 0.00 0.00 0.00 0.00 0.00 0.00 0.00
0.13 0.13 0.14 0.16 0.19 0.19 0.19 0.21 0.24 0.25 0.24 0.21 0.19 0.17 0.15 0.14 0.12 0.09 0.08 0.07 0.05 0.04 0.04 0.03 0.02 0.01 0.01 0.00 0.00 0.00 0.00 0.00 0.00 0.00 0.00 0.00 0.00 0.00
MSLP
1010.66 1010.62 1010.61 1010.61 1010.61 1010.59 1010.53 1010.42 1010.28 1010.12 1009.97 1009.85 1009.79 1009.81 1009.93 1010.15 1010.44 1010.80 1011.20 1011.60 1011.97 1012.28 1012.54 1012.72 1012.85 1012.92 1012.96 1012.99 1013.01 1013.05 1013.11 1013.19 1013.29 1013.40 1013.52 1013.65 1013.79 1013.95
1010.68 1010.64 1010.61 1010.60 1010.58 1010.54 1010.47 1010.36 1010.22 1010.07 1009.94 1009.84 1009.81 1009.86 1010.02 1010.26 1010.58 1010.96 1011.37 1011.76 1012.12 1012.42 1012.64 1012.79 1012.88 1012.91 1012.91 1012.89 1012.86 1012.85 1012.85 1012.87 1012.90 1012.94 1012.98 1013.04 1013.12 1013.23
1010.61 1010.58 1010.56 1010.55 1010.53 1010.48 1010.41 1010.31 1010.18 1010.05 1009.94 1009.88 1009.88 1009.97 1010.15 1010.43 1010.77 1011.16 1011.57 1011.96 1012.30 1012.58 1012.78 1012.90 1012.95 1012.94 1012.90 1012.84 1012.77 1012.71 1012.66 1012.61 1012.58 1012.54 1012.53 1012.52 1012.54 1012.61
1010.39 1010.40 1010.40 1010.40 1010.40 1010.37 1010.31 1010.22 1010.12 1010.02 1009.94 1009.90 1009.94 1010.06 1010.27 1010.56 1010.92 1011.32 1011.73 1012.11 1012.44 1012.70 1012.88 1012.99 1013.02 1012.99 1012.92 1012.84 1012.74 1012.64 1012.54 1012.45 1012.36 1012.28 1012.21 1012.16 1012.15 1012.19
1010.01 1010.05 1010.09 1010.13 1010.15 1010.15 1010.12 1010.06 1009.99 1009.92 1009.87 1009.86 1009.92 1010.06 1010.28 1010.58 1010.95 1011.35 1011.76 1012.14 1012.47 1012.74 1012.92 1013.03 1013.06 1013.04 1012.98 1012.88 1012.78 1012.67 1012.55 1012.44 1012.32 1012.21 1012.12 1012.05 1012.03 1012.07
1009.45 1009.54 1009.63 1009.71 1009.77 1009.81 1009.82 1009.80 1009.76 1009.71 1009.68 1009.68 1009.75 1009.89 1010.11 1010.41 1010.77 1011.18 1011.59 1011.99 1012.34 1012.63 1012.85 1012.99 1013.07 1013.08 1013.05 1012.99 1012.91 1012.82 1012.72 1012.61 1012.51 1012.41 1012.32 1012.27 1012.26 1012.32
1008.75 1008.89 1009.02 1009.15 1009.26 1009.35 1009.40 1009.42 1009.41 1009.38 1009.35 1009.35 1009.40 1009.53 1009.73 1010.02 1010.37 1010.78 1011.21 1011.64 1012.03 1012.38 1012.66 1012.88 1013.03 1013.12 1013.16 1013.17 1013.15 1013.12 1013.07 1013.01 1012.94 1012.88 1012.84 1012.83 1012.86 1012.96
1007.97 1008.15 1008.33 1008.50 1008.67 1008.80 1008.89 1008.94 1008.94 1008.92 1008.89 1008.87 1008.89 1008.98 1009.16 1009.42 1009.76 1010.18 1010.63 1011.11 1011.57 1011.99 1012.37 1012.69 1012.94 1013.14 1013.29 1013.40 1013.48 1013.53 1013.56 1013.58 1013.60 1013.61 1013.63 1013.68 1013.77 1013.92
1007.18 1007.39 1007.61 1007.83 1008.04 1008.21 1008.34 1008.40 1008.42 1008.38 1008.33 1008.27 1008.26 1008.30 1008.44 1008.67 1009.00 1009.42 1009.91 1010.44 1010.98 1011.51 1011.99 1012.43 1012.81 1013.14 1013.41 1013.64 1013.83 1013.99 1014.13 1014.26 1014.37 1014.47 1014.58 1014.71 1014.86 1015.06
1006.45 1006.69 1006.94 1007.19 1007.43 1007.64 1007.78 1007.87 1007.87 1007.82 1007.74 1007.64 1007.57 1007.57 1007.66 1007.86 1008.18 1008.61 1009.13 1009.72 1010.34 1010.96 1011.56 1012.12 1012.62 1013.07 1013.47 1013.82 1014.13 1014.41 1014.66 1014.89 1015.11 1015.32 1015.52 1015.73 1015.94 1016.18
1005.82 1006.08 1006.35 1006.63 1006.89 1007.12 1007.27 1007.35 1007.35 1007.28 1007.16 1007.02 1006.90 1006.85 1006.90 1007.08 1007.39 1007.82 1008.37 1009.01 1009.70 1010.40 1011.09 1011.75 1012.36 1012.91 1013.41 1013.86 1014.28 1014.66 1015.01 1015.35 1015.67 1015.98 1016.27 1016.54 1016.81 1017.08
1005.31 1005.58 1005.86 1006.15 1006.42 1006.64 1006.80 1006.88 1006.86 1006.76 1006.61 1006.44 1006.28 1006.20 1006.22 1006.38 1006.68 1007.12 1007.69 1008.36 1009.10 1009.86 1010.61 1011.33 1012.01 1012.63 1013.19 1013.72 1014.20 1014.65 1015.09 1015.51 1015.92 1016.30 1016.67 1017.02 1017.34 1017.64
1004.88 1005.14 1005.42 1005.70 1005.96 1006.18 1006.33 1006.39 1006.36 1006.25 1006.08 1005.89 1005.72 1005.62 1005.63 1005.78 1006.08 1006.53 1007.12 1007.80 1008.56 1009.34 1010.12 1010.87 1011.56 1012.20 1012.80 1013.34 1013.86 1014.36 1014.85 1015.32 1015.79 1016.25 1016.68 1017.08 1017.45 1017.78
1004.48 1004.72 1004.97 1005.23 1005.47 1005.67 1005.80 1005.85 1005.81 1005.70 1005.53 1005.34 1005.18 1005.09 1005.11 1005.28 1005.59 1006.05 1006.64 1007.33 1008.09 1008.87 1009.63 1010.36 1011.04 1011.67 1012.24 1012.78 1013.29 1013.80 1014.31 1014.82 1015.33 1015.83 1016.32 1016.77 1017.19 1017.56
1004.06 1004.25 1004.47 1004.68 1004.89 1005.05 1005.16 1005.20 1005.16 1005.05 1004.90 1004.74 1004.61 1004.56 1004.63 1004.82 1005.17 1005.65 1006.25 1006.94 1007.68 1008.44 1009.17 1009.86 1010.49 1011.07 1011.60 1012.09 1012.58 1013.07 1013.58 1014.10 1014.63 1015.17 1015.70 1016.20 1016.66 1017.08
1003.57 1003.71 1003.86 1004.03 1004.18 1004.31 1004.38 1004.41 1004.37 1004.28 1004.17 1004.06 1003.99 1004.00 1004.13 1004.38 1004.77 1005.29 1005.91 1006.60 1007.33 1008.06 1008.75 1009.39 1009.96 1010.48 1010.95 1011.40 1011.84 1012.30 1012.79 1013.31 1013.85 1014.41 1014.97 1015.51 1016.02 1016.49
1003.02 1003.08 1003.17 1003.26 1003.36 1003.44 1003.49 1003.50 1003.47 1003.41 1003.34 1003.29 1003.30 1003.39 1003.60 1003.92 1004.38 1004.95 1005.60 1006.31 1007.03 1007.74 1008.40 1008.99 1009.52 1009.98 1010.40 1010.80 1011.20 1011.63 1012.09 1012.60 1013.14 1013.71 1014.29 1014.87 1015.41 1015.93
1002.42 1002.41 1002.42 1002.45 1002.48 1002.52 1002.53 1002.53 1002.51 1002.48 1002.47 1002.48 1002.57 1002.75 1003.04 1003.46 1003.98 1004.61 1005.31 1006.05 1006.79 1007.49 1008.13 1008.70 1009.19 1009.62 1010.00 1010.37 1010.74 1011.14 1011.58 1012.07 1012.61 1013.18 1013.77 1014.35 1014.92 1015.47
1001.84 1001.76 1001.70 1001.67 1001.65 1001.64 1001.63 1001.61 1001.60 1001.60 1001.63 1001.71 1001.87 1002.13 1002.50 1003.00 1003.60 1004.29 1005.04 1005.82 1006.58 1007.30 1007.95 1008.51 1009.00 1009.41 1009.78 1010.12 1010.46 1010.84 1011.26 1011.73 1012.25 1012.81 1013.39 1013.98 1014.55 1015.11
1001.32 1001.18 1001.07 1000.99 1000.93 1000.89 1000.86 1000.83 1000.83 1000.84 1000.91 1001.04 1001.25 1001.58 1002.02 1002.58 1003.24 1003.99 1004.79 1005.61 1006.41 1007.15 1007.82 1008.40 1008.89 1009.30 1009.67 1010.00 1010.33 1010.69 1011.09 1011.53 1012.03 1012.55 1013.11 1013.67 1014.23 1014.77
1000.88 1000.72 1000.58 1000.48 1000.39 1000.33 1000.29 1000.26 1000.26 1000.29 1000.37 1000.53 1000.78 1001.14 1001.63 1002.23 1002.93 1003.72 1004.56 1005.41 1006.24 1007.01 1007.70 1008.30 1008.80 1009.23 1009.59 1009.92 1010.24 1010.57 1010.94 1011.35 1011.81 1012.29 1012.80 1013.33 1013.84 1014.35
1000.54 1000.37 1000.23 1000.13 1000.05 999.99 999.95 999.92 999.92 999.95 1000.05 1000.21 1000.47 1000.85 1001.35 1001.96 1002.68 1003.49 1004.34 1005.21 1006.05 1006.83 1007.54 1008.15 1008.66 1009.09 1009.45 1009.77 1010.07 1010.38 1010.71 1011.08 1011.48 1011.92 1012.38 1012.84 1013.31 1013.76
1000.25 1000.11 1000.00 999.92 999.87 999.83 999.80 999.79 999.79 999.83 999.91 1000.07 1000.33 1000.69 1001.18 1001.78 1002.49 1003.28 1004.12 1004.98 1005.82 1006.60 1007.30 1007.91 1008.42 1008.84 1009.19 1009.48 1009.75 1010.02 1010.31 1010.63 1010.98 1011.36 1011.76 1012.17 1012.58 1012.98
Thickness
5667 5672 5676 5682 5686 5690 5694 5698 5697 5697 5702 5707 5710 5712 5712 5712 5710 5711 5711 5707 5706 5705 5705 5705 5705 5705 5705 5705 5705 5707 5708 5709 5710 5711 5712 5713 5714 5715
5653 5658 5663 5670 5675 5679 5683 5688 5692 5693 5696 5703 5703 5707 5706 5707 5703 5705 5704 5701 5700 5700 5699 5699 5699 5700 5700 5700 5700 5701 5703 5704 5705 5707 5708 5710 5711 5711
5639 5644 5650 5655 5661 5668 5673 5676 5681 5685 5686 5693 5696 5697 5697 5698 5698 5698 5698 5697 5695 5693 5693 5693 5693 5693 5693 5693 5694 5695 5697 5698 5700 5702 5704 5705 5707 5708
5623 5629 5635 5642 5646 5652 5659 5664 5669 5674 5677 5680 5684 5686 5688 5690 5690 5690 5691 5692 5689 5685 5685 5685 5685 5686 5687 5687 5688 5689 5690 5692 5695 5697 5699 5700 5702 5703
5608 5613 5620 5626 5631 5639 5645 5652 5658 5664 5668 5671 5675 5678 5679 5682 5681 5682 5682 5682 5681 5678 5677 5677 5677 5678 5679 5680 5681 5682 5684 5686 5688 5690 5692 5694 5695 5696
5593 5598 5604 5610 5617 5623 5631 5638 5645 5651 5655 5661 5665 5668 5669 5672 5674 5674 5673 5673 5674 5674 5671 5670 5669 5670 5671 5672 5673 5674 5676 5677 5679 5682 5684 5685 5686 5687
5579 5584 5590 5596 5602 5609 5617 5626 5633 5639 5645 5650 5655 5660 5662 5664 5667 5669 5668 5667 5665 5666 5666 5665 5665 5665 5664 5663 5664 5665 5666 5668 5670 5671 5673 5674 5675 5676
5566 5572 5577 5583 5589 5593 5600 5607 5615 5625 5634 5640 5647 5652 5657 5661 5664 5664 5663 5661 5658 5659 5660 5658 5660 5659 5658 5657 5655 5656 5657 5658 5660 5661 5662 5663 5664 5665
5556 5561 5567 5576 5578 5584 5590 5594 5602 5609 5617 5628 5638 5646 5652 5657 5659 5658 5659 5660 5659 5656 5654 5651 5651 5651 5649 5646 5646 5647 5648 5649 5650 5651 5652 5652 5653 5653
5548 5552 5556 5562 5568 5573 5579 5588 5596 5604 5611 5618 5630 5638 5644 5650 5653 5655 5655 5653 5651 5650 5651 5646 5644 5642 5641 5638 5637 5638 5638 5639 5640 5641 5642 5642 5642 5642
5542 5546 5549 5554 5558 5560 5566 5576 5585 5594 5602 5610 5619 5627 5633 5639 5644 5645 5646 5646 5643 5642 5644 5643 5638 5636 5634 5632 5629 5629 5629 5630 5630 5631 5631 5632 5632 5632
5538 5541 5542 5546 5549 5550 5557 5566 5575 5585 5593 5603 5609 5616 5624 5630 5634 5640 5644 5645 5642 5639 5639 5640 5635 5634 5630 5627 5625 5623 5621 5620 5620 5621 5622 5623 5624 5626
5535 5539 5542 5540 5540 5542 5547 5557 5567 5574 5583 5592 5602 5610 5617 5623 5629 5635 5640 5644 5644 5644 5640 5638 5635 5636 5634 5626 5622 5620 5619 5616 5614 5613 5614 5615 5616 5619
5530 5535 5538 5535 5535 5536 5541 5549 5555 5561 5575 5585 5595 5604 5611 5618 5624 5630 5634 5638 5642 5644 5640 5639 5638 5636 5633 5626 5621 5618 5617 5615 5614 5612 5610 5608 5609 5611
5526 5528 5528 5527 5528 5532 5535 5540 5546 5558 5570 5579 5590 5599 5607 5613 5618 5621 5625 5628 5631 5633 5633 5634 5636 5634 5632 5628 5623 5618 5615 5613 5612 5611 5608 5607 5607 5606
5520 5522 5520 5521 5524 5530 5536 5539 5546 5558 5567 5576 5585 5593 5600 5605 5610 5615 5618 5620 5621 5622 5624 5626 5628 5628 5627 5625 5621 5617 5615 5613 5610 5609 5607 5606 5604 5603
5520 5521 5524 5527 5528 5533 5538 5544 5550 5556 5563 5571 5579 5587 5594 5600 5605 5610 5614 5616 5617 5617 5616 5617 5619 5620 5621 5620 5616 5614 5613 5611 5609 5606 5603 5603 5602 5600
5512 5520 5523 5527 5530 5534 5539 5544 5549 5555 5563 5569 5576 5584 5590 5597 5602 5606 5609 5613 5614 5615 5615 5614 5614 5612 5611 5611 5612 5612 5610 5608 5605 5601 5601 5600 5598 5597
5511 5518 5522 5526 5530 5534 5539 5544 5550 5556 5561 5568 5575 5581 5588 5593 5599 5602 5606 5609 5611 5612 5612 5612 5612 5612 5609 5607 5605 5606 5607 5605 5601 5598 5597 5598 5596 5594
5513 5518 5521 5524 5529 5533 5538 5543 5549 5554 5559 5566 5573 5579 5586 5591 5596 5599 5603 5606 5608 5608 5608 5608 5609 5611 5611 5610 5606 5602 5600 5601 5599 5596 5595 5594 5593 5587
5515 5518 5521 5523 5527 5531 5536 5541 5547 5552 5558 5565 5572 5578 5584 5590 5594 5598 5601 5599 5603 5604 5605 5605 5606 5607 5608 5606 5602 5598 5597 5593 5594 5594 5592 5590 5588 5585
5516 5519 5521 5523 5527 5531 5535 5540 5546 5551 5557 5564 5571 5578 5583 5588 5592 5595 5598 5599 5600 5602 5602 5601 5598 5599 5601 5600 5599 5596 5592 5588 5586 5585 5585 5585 5588 5585
5517 5519 5522 5525 5528 5531 5536 5541 5546 5552 5558 5565 5571 5577 5583 5587 5591 5594 5595 5596 5597 5598 5597 5595 5594 5595 5596 5596 5595 5593 5589 5585 5584 5581 5580 5579 5577 5575